Wind_Speed
16 14 9 1 2 2 2 1 4 5 2 2 6 9 10 8 2 5 18 19 26 26 23 23 25 24 25 25 26 25 25 24 22 21 21 19 18 17 15 13 11 10 10 10 9 8 8 7 8
21 12 2 1 2 1 2 1 5 3 6 9 12 11 10 7 8 13 16 26 28 28 25 24 24 25 24 25 25 23 23 22 20 18 18 17 15 14 12 11 10 10 10 9 8 7 7 6 8
17 3 2 3 2 3 3 2 11 7 13 4 6 11 5 6 16 17 25 31 30 28 25 24 25 25 24 25 23 22 21 21 19 17 16 15 14 12 11 10 10 9 10 9 6 6 6 6 7
8 5 3 2 9 5 3 15 15 12 8 6 14 11 7 10 13 20 34 33 31 29 27 23 25 24 24 23 21 20 19 18 16 15 14 13 12 11 10 9 8 8 8 7 6 6 6 6 8
5 3 1 8 9 4 12 17 15 10 8 16 12 10 7 11 24 34 32 29 33 30 26 24 25 25 24 22 20 19 17 16 15 14 12 12 11 9 8 7 7 6 6 5 6 7 6 7 8
2 1 3 4 8 6 15 21 20 16 15 19 15 13 5 24 29 29 32 33 30 30 27 25 24 25 23 20 20 19 16 15 14 13 12 11 10 9 8 7 5 4 4 4 5 6 7 7 8
4 2 7 9 3 15 23 21 20 19 16 8 15 10 10 17 27 31 33 29 30 28 28 26 23 22 21 20 19 18 16 15 14 13 11 9 8 7 7 5 5 3 4 4 5 5 6 7 8
6 3 4 5 13 9 15 10 19 25 14 18 15 8 15 24 31 31 30 29 30 29 27 27 25 23 23 21 19 18 16 15 14 11 10 9 7 6 6 4 3 5 4 5 5 5 6 6 7
4 3 3 4 7 6 21 16 13 8 21 11 6 11 29 36 32 29 25 24 29 27 28 27 26 24 23 22 19 18 16 15 13 11 9 8 4 5 6 4 1 4 6 7 7 6 5 3 4
5 3 6 6 5 1 21 24 17 12 20 7 15 17 31 32 30 28 26 25 25 27 29 28 27 25 24 23 21 19 17 16 13 11 10 9 5 3 6 5 1 2 4 6 4 3 4 4 6
7 6 6 6 10 6 23 24 19 25 17 21 24 24 26 30 27 28 27 32 32 34 31 30 29 26 26 25 22 19 18 16 14 14 11 8 5 4 8 8 4 1 2 4 4 4 4 3 3
4 9 11 5 6 9 20 21 20 23 13 24 25 29 27 22 22 28 29 28 28 32 33 31 30 29 28 25 24 21 20 18 17 16 13 11 6 5 7 10 6 4 1 2 4 3 2 1 2
4 6 14 13 10 12 12 18 19 14 22 22 23 26 25 24 29 32 34 33 32 30 34 33 33 32 28 27 25 21 20 21 18 16 15 13 10 7 8 9 6 3 3 2 4 1 1 1 2
8 15 17 15 15 9 11 7 7 17 23 24 26 27 25 23 30 29 28 29 34 33 33 34 34 33 31 28 24 21 21 20 19 20 16 15 13 6 5 8 4 2 2 3 2 3 1 2 1
6 6 14 16 12 4 15 6 15 24 26 26 25 24 23 22 32 30 34 32 37 35 38 37 36 34 34 31 26 17 19 25 25 22 20 17 15 11 9 8 6 3 2 3 2 1 0 2 3
3 3 4 14 19 10 10 10 22 26 26 23 22 20 21 22 30 31 36 36 35 34 36 39 38 36 35 32 26 19 13 13 16 17 20 22 17 12 8 6 6 5 3 5 4 1 2 5 3
2 5 7 11 9 16 5 4 24 23 24 22 21 20 16 15 20 32 37 37 36 36 40 40 38 38 36 33 29 23 17 14 12 12 16 22 19 13 9 6 6 3 6 4 4 3 2 0 2
5 3 6 6 2 17 5 8 22 23 24 24 22 20 20 17 16 28 37 37 36 39 42 43 40 40 38 35 30 26 20 19 14 15 16 18 18 16 10 7 7 6 7 6 5 7 1 2 2
4 5 8 11 4 4 17 19 20 25 22 22 21 21 21 23 20 23 36 37 34 36 41 41 41 43 41 34 28 26 23 22 20 17 17 18 17 17 14 10 11 10 8 9 10 7 3 3 1
9 13 17 9 10 8 10 20 19 25 26 27 24 22 23 20 18 21 30 36 39 38 40 40 45 45 43 36 32 27 26 23 22 19 18 17 20 20 17 12 13 14 10 10 10 6 7 5 4
15 16 15 9 7 1 8 3 3 9 14 17 22 24 22 24 21 20 23 34 39 38 40 43 45 45 44 39 34 29 25 24 24 23 22 24 20 23 19 15 13 11 11 15 11 7 10 7 6
13 15 14 8 4 7 6 4 6 10 9 14 20 21 22 23 22 21 24 31 37 40 43 44 45 44 41 41 38 34 29 28 30 28 23 22 23 23 19 17 14 10 14 15 13 11 11 8 7
14 12 10 10 6 4 4 4 7 9 12 11 18 24 23 24 24 23 25 37 42 41 41 45 47 45 42 41 40 39 34 32 26 23 20 25 25 23 21 18 17 14 16 18 15 13 11 10 7
14 7 8 3 5 8 14 13 6 11 12 17 17 20 26 24 25 25 36 38 37 39 39 39 42 42 44 43 43 42 39 33 29 27 20 25 28 25 22 22 21 19 18 19 16 14 12 11 8
11 7 5 7 8 10 10 6 12 18 19 24 23 22 25 25 24 23 22 22 32 35 37 38 41 39 43 47 46 44 41 34 31 32 29 27 29 29 27 27 24 24 21 20 19 17 15 15 12
9 15 9 10 4 5 6 9 13 15 17 26 27 22 22 24 24 25 25 28 35 37 39 40 41 40 41 44 46 45 41 37 34 31 31 30 33 34 30 31 28 26 23 23 20 17 15 15 15
10 10 12 6 3 2 4 7 6 10 12 24 25 22 23 27 26 28 26 32 38 37 41 44 42 42 43 45 46 46 44 40 37 35 26 30 34 34 32 32 32 28 26 25 22 19 18 17 15
18 7 4 2 15 17 5 6 8 8 14 14 22 25 26 23 27 26 22 28 37 42 43 43 45 46 46 45 43 45 45 44 41 36 33 34 34 34 35 34 34 31 29 28 26 23 20 19 18
11 11 3 6 8 12 7 16 9 10 10 14 22 26 26 24 22 25 24 31 40 41 39 41 40 42 40 42 41 40 42 43 43 43 36 35 35 36 36 37 36 35 34 31 30 28 24 22 21
20 15 11 9 7 6 16 25 3 10 9 11 19 25 25 17 15 20 25 23 29 34 36 41 40 41 43 43 42 41 40 38 43 43 45 37 38 38 37 35 40 40 38 34 33 32 30 27 26
Wind_Direction
145 145 142 0 320 52 284 279 126 136 126 25 80 108 96 34 86 144 150 147 146 139 136 131 132 133 134 134 129 125 121 117 113 114 115 117 114 111 110 108 102 94 86 80 78 77 81 82 91
143 142 152 160 76 343 264 179 151 176 113 120 86 91 53 74 70 115 129 150 149 145 141 137 138 137 138 135 131 126 120 118 116 117 119 118 117 113 114 113 106 92 78 65 65 64 66 72 85
138 154 51 38 289 210 116 91 128 121 134 113 109 77 76 94 114 138 150 150 150 150 148 143 145 144 140 140 135 129 126 127 127 124 123 121 120 119 114 109 100 92 81 70 58 72 69 65 73
132 38 106 333 249 241 167 147 140 148 106 101 107 77 88 125 139 142 146 146 150 151 152 150 150 146 145 144 141 136 135 132 127 125 125 126 124 119 112 108 100 88 80 71 56 70 79 73 70
123 87 251 316 274 284 153 149 151 129 128 103 105 101 84 106 128 143 149 152 152 154 154 153 153 152 150 149 146 143 140 140 136 132 132 131 125 118 108 108 100 92 85 79 67 72 81 81 76
82 195 15 286 329 200 156 148 152 124 122 113 98 103 89 140 143 151 155 155 155 155 156 155 156 157 156 152 154 151 148 146 142 141 141 136 129 116 105 96 83 80 78 79 78 72 80 83 89
31 236 198 195 263 142 137 144 137 134 140 131 129 108 137 153 152 147 155 158 159 159 157 156 157 157 157 162 160 159 158 152 153 153 148 142 132 129 114 92 66 76 87 79 82 80 77 87 89
195 176 233 231 182 164 152 128 141 142 142 129 136 156 166 167 160 150 157 158 161 161 160 160 161 163 167 169 164 168 167 163 163 163 161 149 151 133 109 100 68 56 94 88 93 101 98 87 83
134 261 276 274 90 157 153 135 162 129 136 159 206 144 166 165 159 152 148 150 160 165 166 165 164 171 171 171 168 174 172 172 171 173 166 162 156 179 163 118 73 87 93 104 99 78 75 95 96
164 186 236 212 151 161 152 150 148 139 151 152 115 133 159 163 162 160 158 159 163 168 173 173 173 174 175 176 174 179 177 179 178 176 174 177 168 176 186 165 182 262 129 92 105 54 24 72 91
198 221 214 252 227 165 144 146 150 150 174 160 151 154 164 165 170 169 168 169 172 174 175 179 179 180 181 181 180 182 187 190 188 184 189 184 173 196 201 180 201 137 157 111 113 67 72 51 40
195 261 241 217 132 143 165 156 162 165 175 162 158 160 163 169 170 172 172 174 174 175 177 179 182 183 187 186 189 191 195 195 191 188 195 198 205 211 206 201 123 146 127 76 121 94 47 55 347
219 239 266 272 279 142 185 165 167 169 147 157 154 160 169 173 173 178 178 177 177 180 179 180 182 186 187 191 198 202 200 201 196 199 204 208 214 206 178 168 178 177 164 197 142 66 320 258 63
202 235 253 256 251 151 153 197 108 150 150 156 159 169 173 171 176 179 179 177 178 182 184 184 187 189 188 192 199 202 208 213 214 213 208 215 216 199 186 169 176 156 214 131 92 305 30 110 22
203 223 254 261 256 224 119 147 155 152 153 162 165 169 177 177 180 179 183 181 183 187 185 189 192 194 195 198 203 206 228 237 230 233 219 209 210 215 227 231 234 286 223 194 215 343 13 343 112
351 142 220 249 250 175 130 182 153 159 158 167 170 174 166 181 184 182 183 188 190 187 185 190 195 197 200 204 192 196 186 172 190 191 209 207 207 214 222 238 227 207 245 203 195 240 83 84 95
10 236 243 294 181 170 129 181 165 166 161 167 174 181 179 179 176 187 188 189 191 190 188 191 193 198 201 193 197 204 199 194 189 179 188 198 207 223 221 229 197 223 206 197 265 202 163 125 244
214 245 268 242 134 174 161 153 161 171 166 173 179 181 185 189 204 178 184 189 193 194 193 193 191 197 196 201 210 213 213 213 218 213 214 211 215 216 212 205 200 192 210 218 204 188 196 150 354
229 246 253 270 335 87 161 165 172 175 175 178 182 185 190 188 197 184 183 187 190 191 190 189 189 197 201 203 204 208 212 214 220 228 226 218 212 213 217 215 204 198 214 218 201 184 220 183 299
232 249 262 307 280 167 200 178 174 175 184 183 184 187 192 194 189 187 177 184 190 189 190 186 193 198 202 203 203 203 207 210 219 223 228 234 222 213 218 217 217 218 215 190 177 209 182 189 183
232 232 250 235 312 265 130 42 169 195 191 192 192 188 191 191 190 191 184 185 188 189 187 188 192 197 201 203 203 203 207 214 220 227 231 239 227 222 213 218 215 203 208 189 194 189 182 181 178
238 233 242 249 276 244 163 222 214 223 215 192 196 194 195 197 198 188 189 188 192 194 193 191 194 198 198 201 200 199 202 214 226 232 238 225 221 213 217 214 209 212 197 199 204 197 191 192 177
242 239 235 227 233 217 264 128 245 160 222 211 196 197 196 197 197 194 195 195 195 192 193 195 195 198 199 200 201 201 205 215 224 224 239 220 211 211 212 215 207 200 198 201 200 201 203 201 186
226 249 253 211 201 228 227 214 239 211 211 222 203 202 198 197 199 200 199 197 196 195 193 193 192 194 199 199 201 203 206 213 219 224 235 218 204 203 207 205 201 199 196 197 201 203 206 206 196
197 171 252 248 230 234 208 226 227 208 211 204 206 203 200 197 197 200 197 198 196 193 191 190 190 191 193 195 198 203 208 215 220 225 224 214 203 201 203 204 200 202 206 205 201 207 217 213 207
196 201 203 213 213 251 214 222 232 228 213 199 207 204 198 198 197 198 196 198 197 193 189 188 190 192 193 194 198 205 213 217 220 224 224 216 209 204 206 205 206 207 213 210 207 216 215 213 218
219 205 202 197 207 268 221 250 295 243 207 208 206 194 199 200 198 199 198 197 197 193 190 189 189 193 194 197 202 207 213 214 216 222 216 212 203 205 205 204 204 210 214 210 208 215 217 216 217
209 179 187 241 222 240 240 220 233 203 221 198 203 200 200 197 199 203 200 198 198 195 192 190 191 191 194 198 200 206 212 215 216 221 216 207 208 207 207 209 212 214 214 213 211 214 217 220 221
209 209 230 173 196 225 241 251 192 235 219 206 199 197 202 192 191 200 204 200 197 195 189 191 190 193 194 196 199 202 209 212 214 219 223 215 213 212 213 213 214 217 214 212 213 216 218 222 220
222 214 184 215 234 235 227 244 132 207 230 206 212 203 205 189 178 195 205 200 193 193 189 190 189 192 195 195 198 202 207 207 213 215 221 222 216 216 217 218 219 219 217 215 214 216 218 221 222
Height
785 786 789 790 803 803 804 789 771 777 778 768 767 772 789 788 791 820 806 808 811 813 816 818 819 821 824 826 827 829 830 831 833 834 835 837 838 839 839 840 840 840 840 840 841 841 841 840 839
785 787 786 791 806 818 806 778 782 772 771 768 769 774 783 797 790 801 807 811 814 815 818 820 822 824 826 828 829 831 832 834 835 837 838 839 841 841 841 842 842 842 842 842 843 842 842 841 840
785 784 789 805 808 814 800 779 777 776 768 769 774 775 786 800 798 803 806 811 815 817 820 822 824 826 828 830 832 833 834 836 837 838 840 841 842 842 843 844 844 844 843 843 843 842 842 841 841
783 786 795 808 805 787 775 774 771 775 771 768 772 790 790 795 798 801 808 812 816 819 821 823 825 827 829 832 834 835 836 838 838 840 841 842 843 844 845 844 845 845 845 845 844 844 843 842 842
786 790 807 809 787 769 765 764 766 774 774 776 774 794 796 799 800 805 810 813 816 819 822 824 826 829 831 833 835 836 837 838 839 841 843 843 844 845 845 845 845 844 846 846 845 845 844 843 843
796 792 811 815 788 763 763 759 765 771 775 781 786 791 802 802 803 807 810 814 817 819 823 826 828 829 831 834 836 837 838 839 841 842 843 843 844 845 845 845 845 846 847 847 846 846 846 845 844
804 804 803 799 800 779 763 755 766 771 778 782 776 797 803 803 804 807 811 814 817 820 823 826 828 830 832 835 837 837 838 840 842 843 843 844 845 845 845 845 845 846 847 847 847 847 847 845 845
784 791 795 782 778 777 762 761 759 764 778 773 774 798 804 799 803 806 811 814 817 820 823 825 827 829 832 835 837 837 838 840 842 843 843 844 844 845 846 846 845 846 847 848 847 847 847 846 847
778 795 792 780 767 764 756 765 766 759 769 772 770 777 785 794 800 807 812 815 817 821 823 825 826 829 831 834 836 837 839 840 842 842 843 844 845 845 847 847 847 846 847 847 847 847 847 846 847
782 786 772 752 749 754 746 752 761 770 776 776 776 782 791 794 798 804 809 813 816 819 821 823 825 827 831 833 835 835 837 839 841 841 842 843 844 845 847 847 847 846 848 848 848 847 846 846 846
766 772 752 741 738 746 748 755 751 766 780 766 775 781 787 793 798 801 805 806 809 814 818 821 824 826 829 831 832 834 836 838 839 840 840 841 843 844 845 846 845 846 848 847 847 847 846 845 845
768 747 736 730 727 739 754 745 756 751 755 757 762 768 779 788 793 798 802 807 810 812 814 818 822 824 827 829 830 831 833 835 837 837 838 839 841 844 844 845 845 847 848 846 846 847 846 845 844
759 746 729 723 723 732 737 742 747 752 748 757 764 772 778 782 789 794 796 800 805 809 811 815 819 821 824 826 828 830 832 833 835 837 837 838 840 842 842 843 845 846 846 845 846 846 847 845 844
740 740 732 722 725 724 739 745 741 748 746 757 763 769 774 779 784 791 797 799 802 805 808 812 816 819 821 824 827 829 830 831 833 835 836 838 840 840 840 842 844 845 845 845 845 846 845 845 843
732 748 736 729 722 729 729 756 753 742 746 756 761 767 771 776 782 784 790 795 796 800 804 808 812 816 819 821 825 828 828 829 831 832 834 836 838 838 839 840 841 842 843 844 845 845 844 843 842
744 747 767 729 721 727 734 775 748 739 748 759 760 763 768 772 776 781 786 789 793 796 801 805 810 813 817 819 823 826 828 828 829 830 832 834 836 837 837 838 838 840 840 842 843 843 843 843 843
757 775 764 745 720 723 738 765 744 740 746 757 758 759 762 767 774 777 781 784 789 793 796 801 807 810 813 817 820 822 825 826 828 828 829 832 834 835 836 837 838 838 839 840 841 841 841 841 841
773 766 757 753 728 722 744 750 741 741 745 752 755 756 758 761 762 769 775 780 784 788 792 795 802 806 810 814 816 819 821 824 825 826 827 829 831 833 834 835 836 837 838 839 839 840 841 841 840
748 755 760 735 718 739 736 739 741 739 746 750 752 754 756 754 757 764 770 775 781 784 787 790 795 801 806 809 812 815 816 819 821 823 825 826 827 830 832 832 834 835 836 836 838 840 840 840 840
745 752 751 737 722 733 744 735 730 734 734 734 742 748 750 751 754 757 764 769 774 776 781 785 789 796 801 804 808 811 813 815 818 821 823 824 825 827 829 830 831 832 834 835 837 838 838 838 839
741 748 743 750 730 720 737 753 745 738 734 734 734 733 738 742 747 751 756 760 765 769 773 778 782 789 795 799 805 809 812 813 815 816 819 820 822 825 827 828 829 830 832 833 835 835 836 836 838
757 722 729 739 749 762 727 785 755 743 741 737 734 734 733 736 738 740 745 751 756 759 766 771 776 782 788 793 799 803 806 808 809 811 813 815 819 822 824 826 827 828 830 832 833 833 835 835 836
729 721 729 735 748 749 745 772 757 737 747 741 730 724 722 724 728 732 734 738 743 752 758 763 769 775 781 786 791 796 800 803 805 808 810 812 815 819 821 823 825 826 827 829 831 833 834 835 836
708 724 729 732 751 778 746 750 762 730 726 721 717 713 711 715 719 722 723 731 738 745 751 757 763 768 774 779 785 788 792 797 800 803 805 808 811 814 817 820 822 824 825 827 829 831 833 834 835
713 740 776 774 771 768 743 753 727 703 697 695 701 701 699 703 710 715 722 727 732 737 743 750 756 762 768 772 777 782 786 790 794 798 802 804 806 810 813 816 818 820 822 824 826 828 830 832 834
719 722 755 784 781 764 738 752 716 685 677 674 675 681 689 695 698 703 708 713 719 726 733 740 747 755 761 766 771 776 781 785 789 793 796 798 800 805 808 811 815 817 819 821 824 826 829 830 832
707 723 709 747 743 758 739 718 692 680 680 672 672 678 683 684 689 689 694 700 706 716 722 728 737 746 753 758 763 769 774 779 783 787 791 793 797 800 804 807 810 812 815 818 822 824 826 827 829
681 692 725 744 754 760 740 725 712 693 684 679 675 673 669 672 676 679 686 690 696 702 710 720 727 734 741 750 756 761 766 772 778 782 785 789 792 796 799 802 805 808 811 814 817 820 822 824 826
685 696 700 705 722 736 757 708 680 681 677 674 664 658 657 658 665 670 673 680 684 693 704 712 721 729 737 743 749 754 758 764 771 775 778 783 787 790 792 795 800 803 806 810 813 816 818 821 823
657 673 691 707 729 725 705 678 648 659 660 659 656 644 641 648 657 660 664 671 681 690 697 703 712 720 727 734 741 746 752 757 763 767 771 776 780 782 785 789 793 797 801 805 808 811 814 816 819